Regional Weather Roundup
Issued by NWS

Home | Current Version | Previous Version | Graphics & Text | Print | Product List | Glossary On
Versions: 1 2 3 4 5 6 7 8 9 10 11 12 13 14 15 16 17 18 19 20 21 22 23 24 25 26 27 28 29 30 31 32 33 34 35 36 37 38 39 40 41 42 43 44 45 46 47 48 49 50
000
ASUS43 KOAX 240810
RWRNE

WEATHER ROUNDUP FOR NEBRASKA
NATIONAL WEATHER SERVICE OMAHA NE
300 AM CDT WED MAY 24 2017

NOTES: SATELLITE DATA IS BEING USED TO AUGMENT CLOUD COVER ABOVE
       12000 FEET.
       "FAIR" INDICATES FEW OR NO CLOUDS BELOW 12,000 FEET WITH NO
       SIGNIFICANT WEATHER AND/OR OBSTRUCTIONS TO VISIBILITY.

  * THESE STATIONS DO NOT REPORT WEATHER SUCH AS RAIN...SNOW OR FOG.

NEZ001>004-019>022-054>056-240900-
NEBRASKA PANHANDLE

CITY           SKY/WX    TMP DP  RH WIND       PRES   REMARKS
SCOTTSBLUFF    PTCLDY    42  37  82 E3        29.96F
ALLIANCE       CLEAR     35  33  92 SE3       29.94F
CHADRON        CLOUDY    40  35  83 W3        29.93F
GORDON         FAIR      34  32  92 CALM      29.94F
KIMBALL        PTCLDY    40  37  88 SW3       29.98F
SIDNEY         CLEAR     33  31  92 SW9       29.98F WCI  25
$$

NEZ057>060-069>072-079>082-240900-
SOUTHWEST NEBRASKA

CITY           SKY/WX    TMP DP  RH WIND       PRES   REMARKS
NORTH PLATTE   CLEAR     34  33  96 CALM      29.95F
IMPERIAL       CLEAR     38  33  82 NW5       29.97F WCI  34
LEXINGTON      MOCLDY    43  39  88 W9        29.92F
MCCOOK         CLEAR     40  37  89 NW10      29.95F WCI  33
OGALLALA       CLOUDY    38  35  91 W5        29.97F WCI  34
$$

NEZ005>010-023>029-035>040-094-240900-
NORTH CENTRAL NEBRASKA

CITY           SKY/WX    TMP DP  RH WIND       PRES   REMARKS
VALENTINE      CLEAR     37  32  82 NW5       29.92F WCI  33
AINSWORTH      CLEAR     39  38  94 W7        29.92S WCI  34
BROKEN BOW     PTCLDY    47  41  80 NW9       29.90F
O`NEILL        PTCLDY    45  41  87 NW6       29.89F
ORD            CLEAR     43  39  86 NW6       29.88F
THEDFORD       CLEAR     37  35  94 W8        29.94F WCI  30
$$

NEZ041-046>049-061>064-073>077-083>087-240900-
SOUTH CENTRAL NEBRASKA

CITY           SKY/WX    TMP DP  RH WIND       PRES   REMARKS
GRAND ISLAND   CLOUDY    49  43  80 NW10      29.88F
AURORA         CLOUDY    49  44  82 N13       29.86F
HASTINGS       MOCLDY    48  41  76 NW12      29.88F
HEBRON         MOCLDY    49  45  84 N9        29.85S
HOLDREGE       PTCLDY    43  39  86 NW8       29.90F
KEARNEY *      MOCLDY    48  39  71 N9        29.89F
YORK           CLOUDY    48  45  87 NW10      29.85F
$$

NEZ011>018-030>034-042>045-240900-
NORTHEAST NEBRASKA

CITY           SKY/WX    TMP DP  RH WIND       PRES   REMARKS
NORFOLK        CLEAR     46  42  86 NW13      29.84F
ALBION         CLEAR     46  41  84 NW6       29.86F
BLAIR          MOCLDY    49  46  92 NW13      29.78F
FREMONT        CLEAR     48  47  95 NW10      29.81F
TEKAMAH        MOCLDY    49  45  86 NW13      29.80S
WAYNE          CLEAR     46  46  99 NW9       29.83F
$$

NEZ050>053-065>068-078-088>093-240900-
SOUTHEAST NEBRASKA

CITY           SKY/WX    TMP DP  RH WIND       PRES   REMARKS
LINCOLN        CLEAR     50  46  86 N12       29.83F
OMAHA EPPLEY   MOCLDY    50  45  83 N9        29.78F
BEATRICE       MOCLDY    50  47  88 NW12      29.81F
FALLS CITY     PTCLDY    48  46  93 NW8       29.76F
NEBRASKA CITY  MOCLDY    50  46  85 NW9       29.78F
PLATTSMOUTH    CLOUDY    49  45  84 NW7       29.78S
$$

NEZ044-045-051>053-067-240900-
OMAHA AREA

CITY           SKY/WX    TMP DP  RH WIND       PRES   REMARKS
OMAHA EPPLEY   MOCLDY    50  45  83 N9        29.78F
BLAIR          MOCLDY    49  46  92 NW13      29.78F
FREMONT        CLEAR     48  47  95 NW10      29.81F
MILLARD        PTCLDY    51  48  88 NW8       29.79F
OFFUTT AFB     CLOUDY    51  46  85 NW10      29.77F
PLATTSMOUTH    CLOUDY    49  45  84 NW7       29.78S
WAHOO          FAIR      48  46  91 NW12      29.81F
$$




USA.gov is the U.S. government's official web portal to all federal, state and local government web resources and services.